Weather History for Andover, NJ

Change the Weather History Date:

Friday, April 4, 2014

  Actual Average (KFWN) Record (KFWN)
Temperature  
Mean Temperature 40 °F -  
Max Temperature 44 °F 54 °F 84 °F (1963)
Min Temperature 37 °F 32 °F 19 °F (1962)
Degree Days  
Heating Degree Days 24    
Moisture  
Dew Point 38 °F    
Average Humidity 92    
Maximum Humidity 100    
Minimum Humidity 82    
Precipitation  
Precipitation 0.31 in - - ()
Sea Level Pressure  
Sea Level Pressure 29.96 in    
Wind  
Wind Speed 1 mph (SSE)    
Max Wind Speed 7 mph    
Max Gust Speed -    
Averages and records for this station are not official NWS values.
T = Trace of Precipitation, MM = Missing Value Source: NWS Daily Summary

Daily Weather History Graph

Daily Weather History Graph

Search for Another Location

Airport:

Trip Planner

Search our weather history database for the weather conditions in past years. The results will help you decide how hot, cold, wet, or windy it might be!

Date:

Astronomy

Apr. 04, 2014 Rise Set
Actual Time 6:37 AM EDT 7:27 PM EDT
Civil Twilight 6:09 AM EDT 7:54 PM EDT
Nautical Twilight 5:36 AM EDT 8:28 PM EDT
Astronomical Twilight 5:02 AM EDT 9:02 PM EDT
Moon 9:50 AM EDT (4/4) No Moon Set
Length of Visible Light 13h 45m
Length of Day
12h 49m
Waxing Crescent, 25% of the Moon is Illuminated
Apr 4
Waxing Crescent
Apr 7
First Quarter
Apr 15
Full
Apr 22
Last Quarter
Apr 29
New

Hourly Weather History & Observations

Time (EDT) Temp. Windchill Dew Point Humidity Pressure Visibility Wind Dir Wind Speed Gust Speed Precip Events Conditions
12:54 AM 44.1 °F - 39.9 °F 85% 30.07 in - Calm Calm - 0.02 in   Unknown
1:54 AM 43.0 °F - 41.0 °F 93% 30.06 in - Calm Calm - 0.01 in   Unknown
2:54 AM 43.0 °F - 41.0 °F 93% 30.05 in - Calm Calm - N/A   Unknown
3:54 AM 42.1 °F - 41.0 °F 96% 30.04 in - Calm Calm - 0.01 in   Unknown
4:54 AM 41.0 °F - 41.0 °F 100% 30.04 in - Calm Calm - 0.03 in   Unknown
5:54 AM 42.1 °F - 39.9 °F 92% 30.03 in - Calm Calm - 0.02 in   Unknown
6:54 AM 41.0 °F - 39.0 °F 93% 30.05 in - Calm Calm - N/A   Unknown
7:54 AM 41.0 °F 38.0 °F 37.9 °F 89% 30.06 in - Variable 4.6 mph - N/A   Unknown
8:54 AM 39.9 °F 37.8 °F 37.0 °F 89% 30.04 in - Variable 3.5 mph - 0.02 in   Unknown
9:54 AM 39.9 °F 37.8 °F 37.0 °F 89% 30.02 in - Variable 3.5 mph - N/A   Unknown
10:54 AM 41.0 °F - 36.0 °F 82% 30.04 in - Calm Calm - N/A   Unknown
11:54 AM 39.9 °F - 37.9 °F 93% 30.03 in - Calm Calm - 0.01 in   Unknown
12:54 PM 39.9 °F - 39.0 °F 97% 30.01 in - Calm Calm - 0.01 in   Unknown
1:54 PM 39.9 °F 36.7 °F 37.0 °F 89% 29.97 in - Variable 4.6 mph - N/A   Unknown
2:54 PM 39.9 °F 36.7 °F 37.0 °F 89% 29.96 in - Variable 4.6 mph - N/A   Unknown
3:54 PM 39.9 °F 35.8 °F 36.0 °F 86% 29.91 in - SSE 5.8 mph - N/A   Unknown
4:54 PM 39.0 °F 34.0 °F 36.0 °F 89% 29.88 in - Variable 6.9 mph - N/A   Unknown
5:54 PM 39.0 °F - 37.0 °F 93% 29.87 in - Calm Calm - N/A   Unknown
6:54 PM 39.0 °F - 37.0 °F 93% 29.86 in - Calm Calm - 0.02 in   Unknown
7:54 PM 39.0 °F 36.8 °F 37.0 °F 93% 29.86 in - Variable 3.5 mph - N/A   Unknown
8:54 PM 39.0 °F 36.8 °F 37.9 °F 96% 29.85 in - Variable 3.5 mph - 0.01 in   Unknown
9:54 PM 39.0 °F - 37.9 °F 96% 29.83 in - Calm Calm - N/A   Unknown
10:54 PM 37.9 °F 34.4 °F 37.9 °F 100% 29.83 in - Variable 4.6 mph - 0.10 in   Unknown
11:54 PM 37.9 °F 35.5 °F 37.9 °F 100% 29.78 in - Variable 3.5 mph - 0.05 in   Unknown